EW6920 Weather Reports


Display with metric or nautical units.
time (UTC)temp
F
wind
direction
speed
MPH
gust
MPH
rain 1hr
in
rain 24hr
in
rain mn
in
humidity
%
barometer
mb
20190320154819 33 222 0.0 2.0 0.00 0.00 0.00 92 1007.9
20190320154317 33 221 0.0 2.0 0.00 0.00 0.00 93 1007.9
20190320153814 33 235 0.0 0.0 0.00 0.00 0.00 93 1007.8
20190320153314 33 235 0.0 0.0 0.00 0.00 0.00 93 1007.8
20190320152814 33 235 0.0 1.0 0.00 0.00 0.00 93 1007.8
20190320152313 33 235 1.0 2.0 0.00 0.00 0.00 93 1007.8
20190320151812 33 235 1.0 4.0 0.00 0.00 0.00 93 1007.8
20190320151312 33 235 1.0 4.0 0.00 0.00 0.00 93 1007.9
20190320150813 33 218 0.0 2.0 0.00 0.00 0.00 93 1007.8
20190320150313 33 213 0.0 0.0 0.00 0.00 0.00 93 1007.8
20190320145813 33 213 0.0 0.0 0.00 0.00 0.00 94 1007.8
20190320145313 33 213 0.0 2.0 0.00 0.00 0.00 93 1007.7
20190320144812 33 213 0.0 2.0 0.00 0.00 0.00 93 1007.7
20190320144313 33 232 0.0 0.0 0.00 0.00 0.00 93 1007.7
20190320143812 33 232 0.0 0.0 0.00 0.00 0.00 93 1007.7
20190320143313 33 232 0.0 0.0 0.00 0.00 0.00 93 1007.6
20190320142812 33 232 0.0 0.0 0.00 0.00 0.00 93 1007.7
20190320142312 33 232 0.0 0.0 0.00 0.00 0.00 93 1007.7
20190320141812 33 232 0.0 0.0 0.00 0.00 0.00 93 1007.7
20190320141312 33 232 0.0 0.0 0.00 0.00 0.00 93 1007.7
20190320140813 33 232 0.0 0.0 0.00 0.00 0.00 93 1007.8
20190320140310 33 232 0.0 0.0 0.00 0.00 0.00 93 1007.7
20190320135810 33 231 0.0 0.0 0.00 0.00 0.00 92 1007.8
20190320135311 33 232 0.0 2.0 0.00 0.00 0.00 92 1007.8
20190320134810 33 232 1.0 2.0 0.00 0.00 0.00 91 1007.8
20190320134310 33 232 1.0 4.0 0.00 0.00 0.00 90 1007.7
20190320133810 33 231 1.0 4.0 0.00 0.00 0.00 89 1007.8
20190320133311 33 232 1.0 2.0 0.00 0.00 0.00 89 1007.9
20190320132810 33 231 1.0 3.0 0.00 0.00 0.00 89 1008.0
20190320132311 33 231 1.0 3.0 0.00 0.00 0.00 89 1008.0
20190320131808 33 231 1.0 3.0 0.00 0.00 0.00 89 1008.2
20190320131302 33 231 1.0 3.0 0.00 0.00 0.00 89 1008.2
20190320130802 33 231 1.0 3.0 0.00 0.00 0.00 89 1008.2
20190320130301 33 231 1.0 3.0 0.00 0.00 0.00 89 1008.2
20190320125800 33 231 1.0 3.0 0.00 0.00 0.00 89 1008.3
20190320125300 33 231 1.0 3.0 0.00 0.00 0.00 89 1008.3
20190320124759 33 231 1.0 3.0 0.00 0.00 0.00 89 1008.4
20190320124256 33 234 1.0 3.0 0.00 0.00 0.00 89 1008.4
20190320123756 33 234 1.0 3.0 0.00 0.00 0.00 89 1008.3
20190320123257 33 234 1.0 2.0 0.00 0.00 0.00 89 1008.4
20190320122756 33 234 1.0 3.0 0.00 0.00 0.00 89 1008.4
20190320122257 33 234 2.0 5.0 0.00 0.00 0.00 89 1008.5
20190320121757 33 234 1.0 5.0 0.00 0.00 0.00 89 1008.4
20190320121257 33 175 1.0 3.0 0.00 0.00 0.00 89 1008.4
20190320120756 33 175 2.0 3.0 0.00 0.00 0.00 89 1008.5
20190320120257 33 175 2.0 4.0 0.00 0.00 0.00 89 1008.4
20190320115755 33 126 2.0 4.0 0.00 0.00 0.00 89 1008.3
20190320115256 33 210 1.0 3.0 0.00 0.00 0.00 89 1008.4
20190320114756 33 210 1.0 3.0 0.00 0.00 0.00 89 1008.5
20190320114256 33 210 1.0 3.0 0.00 0.00 0.00 89 1008.3
20190320113754 33 223 1.0 2.0 0.00 0.00 0.00 89 1008.3
20190320113254 33 223 1.0 3.0 0.00 0.00 0.00 89 1008.3
20190320112754 33 223 2.0 4.0 0.00 0.00 0.00 89 1008.4
20190320112255 33 223 2.0 4.0 0.00 0.00 0.00 89 1008.3
20190320111810 33 175 2.0 3.0 0.00 0.00 0.00 89 1008.3
20190320111254 33 132 2.0 3.0 0.00 0.00 0.00 89 1008.2
20190320110752 33 115 1.0 3.0 0.00 0.00 0.00 89 1008.4
20190320110253 33 115 2.0 3.0 0.00 0.00 0.00 89 1008.4
20190320105753 33 115 2.0 4.0 0.00 0.00 0.00 89 1008.5
20190320105252 34 212 2.0 4.0 0.00 0.00 0.00 89 1008.5
20190320104753 34 212 2.0 3.0 0.00 0.00 0.00 89 1008.5
20190320104252 34 212 2.0 4.0 0.00 0.00 0.00 88 1008.5
20190320103752 34 294 2.0 5.0 0.00 0.00 0.00 88 1008.4
20190320103252 34 165 2.0 5.0 0.00 0.00 0.00 89 1008.4
20190320102752 34 222 2.0 3.0 0.00 0.00 0.00 89 1008.5
20190320102250 34 212 2.0 3.0 0.00 0.00 0.00 88 1008.4
20190320101750 34 180 2.0 3.0 0.00 0.00 0.00 88 1008.5
20190320101251 34 180 2.0 3.0 0.00 0.00 0.00 88 1008.5
20190320100750 34 191 2.0 4.0 0.00 0.00 0.00 88 1008.6
20190320100250 34 191 2.0 4.0 0.00 0.00 0.00 88 1008.8
20190320095750 34 191 2.0 4.0 0.00 0.00 0.00 88 1008.8
20190320095250 34 191 2.0 4.0 0.00 0.00 0.00 88 1008.8
20190320094750 34 204 2.0 4.0 0.00 0.00 0.00 88 1009.0
20190320094250 34 223 2.0 4.0 0.00 0.00 0.00 88 1009.1
20190320093749 34 238 2.0 4.0 0.00 0.00 0.00 88 1009.2
20190320093248 34 206 2.0 4.0 0.00 0.00 0.00 88 1009.3
20190320092748 34 206 2.0 4.0 0.00 0.00 0.00 88 1009.4
20190320092248 34 184 2.0 3.0 0.00 0.00 0.00 87 1009.4
20190320091748 34 188 2.0 3.0 0.00 0.00 0.00 87 1009.5
20190320091248 34 190 2.0 3.0 0.00 0.00 0.00 87 1009.6
20190320090748 34 190 2.0 3.0 0.00 0.00 0.00 87 1009.7
20190320090248 34 191 2.0 3.0 0.00 0.00 0.00 87 1009.8
20190320085748 34 191 2.0 3.0 0.00 0.00 0.00 87 1009.9
20190320085248 34 190 2.0 4.0 0.00 0.00 0.00 87 1010.0
20190320084748 35 190 2.0 4.0 0.00 0.00 0.00 86 1010.1
20190320084248 35 234 2.0 3.0 0.00 0.00 0.00 86 1010.3
20190320083748 35 234 2.0 3.0 0.00 0.00 0.00 86 1010.4
20190320083248 35 234 2.0 3.0 0.00 0.00 0.00 86 1010.5
20190320082748 35 234 2.0 3.0 0.00 0.00 0.00 86 1010.6
20190320082248 35 234 2.0 4.0 0.00 0.00 0.00 86 1010.7
20190320081749 35 234 2.0 4.0 0.00 0.00 0.00 86 1010.7
20190320081250 35 190 2.0 3.0 0.00 0.00 0.00 86 1010.9
20190320080752 35 190 2.0 3.0 0.00 0.00 0.00 86 1011.1
20190320080248 35 190 2.0 5.0 0.00 0.00 0.00 86 1011.1
20190320075747 35 201 2.0 5.0 0.00 0.00 0.00 86 1011.2
20190320075248 35 188 2.0 3.0 0.00 0.00 0.00 86 1011.2
20190320074751 35 188 2.0 3.0 0.00 0.00 0.00 86 1011.3
20190320074246 35 188 1.0 3.0 0.00 0.00 0.00 85 1011.3
20190320073746 35 187 1.0 3.0 0.00 0.00 0.00 85 1011.4
20190320073246 35 187 1.0 2.0 0.00 0.00 0.00 85 1011.5
20190320072746 35 187 1.0 2.0 0.00 0.00 0.00 85 1011.6
20190320072246 35 188 1.0 3.0 0.00 0.00 0.00 85 1011.8
20190320071745 35 188 2.0 3.0 0.00 0.00 0.00 85 1011.9
20190320071245 35 188 2.0 3.0 0.00 0.00 0.00 84 1012.0
20190320070746 35 187 1.0 3.0 0.00 0.00 0.00 84 1012.0
20190320070245 35 187 1.0 3.0 0.00 0.00 0.00 84 1012.1
20190320065745 35 187 1.0 5.0 0.00 0.00 0.00 84 1012.3
20190320065245 35 187 2.0 5.0 0.00 0.00 0.00 83 1012.4
20190320064746 35 274 2.0 3.0 0.00 0.00 0.00 83 1012.5
20190320064246 35 274 2.0 4.0 0.00 0.00 0.00 83 1012.6
20190320063745 35 274 2.0 4.0 0.00 0.00 0.00 83 1012.5
20190320063245 35 280 2.0 4.0 0.00 0.00 0.00 83 1012.5
20190320062745 35 280 2.0 4.0 0.00 0.00 0.00 83 1012.6
20190320062246 35 251 2.0 4.0 0.00 0.00 0.00 82 1012.6
20190320061746 35 251 2.0 4.0 0.00 0.00 0.00 82 1012.6
20190320061245 35 251 2.0 3.0 0.00 0.00 0.00 82 1012.7
20190320060745 35 251 2.0 3.0 0.00 0.00 0.00 81 1012.8
20190320060246 35 252 2.0 3.0 0.00 0.00 0.00 81 1013.0
20190320055746 35 252 2.0 3.0 0.00 0.00 0.00 81 1013.1
20190320055246 35 196 2.0 3.0 0.00 0.00 0.00 81 1013.1
20190320054745 35 196 2.0 3.0 0.00 0.00 0.00 81 1013.1
20190320054245 36 196 1.0 3.0 0.00 0.00 0.00 80 1013.1
20190320053746 36 196 2.0 3.0 0.00 0.00 0.00 80 1013.2
20190320053246 36 196 2.0 3.0 0.00 0.00 0.00 80 1013.3
20190320052745 36 198 2.0 3.0 0.00 0.00 0.00 79 1013.4
20190320052245 36 198 2.0 3.0 0.00 0.00 0.00 79 1013.5
20190320051746 36 198 2.0 6.0 0.00 0.00 0.00 79 1013.6
20190320051246 36 198 2.0 6.0 0.00 0.00 0.00 78 1013.6
20190320050745 36 178 2.0 5.0 0.00 0.00 0.00 78 1013.7
20190320050243 36 232 2.0 4.0 0.00 0.00 0.00 78 1013.7
20190320045744 36 232 2.0 4.0 0.00 0.00 0.00 78 1013.7
20190320045243 36 206 2.0 4.0 0.00 0.00 0.00 78 1013.7
20190320044741 36 206 2.0 4.0 0.00 0.00 0.00 78 1013.7
20190320044239 36 5 2.0 3.0 0.00 0.00 0.00 78 1013.8
20190320043739 36 30 2.0 4.0 0.00 0.00 0.00 77 1013.7
20190320043238 36 275 2.0 4.0 0.00 0.00 0.00 77 1013.8
20190320042738 36 275 2.0 4.0 0.00 0.00 0.00 76 1013.8
20190320042236 36 275 2.0 4.0 0.00 0.00 0.00 75 1013.9
20190320041736 36 275 2.0 3.0 0.00 0.00 0.00 75 1014.0
20190320041234 36 205 2.0 3.0 0.00 0.00 0.00 75 1014.0
20190320040734 36 212 2.0 4.0 0.00 0.00 0.00 74 1014.1
20190320040234 36 212 2.0 4.0 0.00 0.00 0.00 74 1014.1
20190320035735 36 210 2.0 3.0 0.00 0.00 0.00 74 1014.2
20190320035234 36 239 2.0 3.0 0.00 0.00 0.00 73 1014.3
20190320034734 37 323 2.0 3.0 0.00 0.00 0.00 73 1014.3
20190320034234 37 182 2.0 3.0 0.00 0.00 0.00 72 1014.4
20190320033734 37 175 2.0 4.0 0.00 0.00 0.00 72 1014.4
20190320033234 37 175 2.0 5.0 0.00 0.00 0.00 72 1014.5
20190320032733 37 175 2.0 5.0 0.00 0.00 0.00 72 1014.5
20190320032232 37 159 2.0 5.0 0.00 0.00 0.00 72 1014.6
20190320031732 37 188 2.0 3.0 0.00 0.00 0.00 71 1014.6
20190320031232 37 188 2.0 3.0 0.00 0.00 0.00 71 1014.6
20190320030732 37 188 2.0 3.0 0.00 0.00 0.00 71 1014.6
20190320030233 37 188 2.0 3.0 0.00 0.00 0.00 71 1014.7
20190320025733 37 188 2.0 3.0 0.00 0.00 0.00 70 1014.8
20190320025232 37 188 2.0 4.0 0.00 0.00 0.00 71 1014.9
20190320024733 37 188 2.0 4.0 0.00 0.00 0.00 70 1015.1
20190320024232 37 146 2.0 4.0 0.00 0.00 0.00 71 1015.2
20190320023731 37 181 2.0 4.0 0.00 0.00 0.00 70 1015.2
20190320023230 37 213 2.0 4.0 0.00 0.00 0.00 71 1015.2
20190320022730 37 190 2.0 4.0 0.00 0.00 0.00 70 1015.3
20190320022230 37 217 2.0 3.0 0.00 0.00 0.00 69 1015.5
20190320021730 37 216 2.0 3.0 0.00 0.00 0.00 70 1015.5
20190320021230 37 216 2.0 3.0 0.00 0.00 0.00 69 1015.5
20190320020730 37 216 2.0 3.0 0.00 0.00 0.00 69 1015.6
20190320020230 37 216 2.0 3.0 0.00 0.00 0.00 68 1015.6
20190320015729 37 216 2.0 3.0 0.00 0.00 0.00 70 1015.6
20190320015232 37 213 2.0 3.0 0.00 0.00 0.00 70 1015.7
20190320014730 37 213 2.0 3.0 0.00 0.00 0.00 69 1015.7
20190320014228 37 188 2.0 3.0 0.00 0.00 0.00 70 1015.7
20190320013727 37 219 2.0 3.0 0.00 0.00 0.00 71 1015.8
20190320013228 37 219 1.0 3.0 0.00 0.00 0.00 69 1015.9
20190320012727 37 219 2.0 3.0 0.00 0.00 0.00 70 1016.0
20190320012228 37 219 1.0 3.0 0.00 0.00 0.00 69 1016.0
20190320011728 37 219 1.0 3.0 0.00 0.00 0.00 70 1016.0
20190320011228 37 219 1.0 3.0 0.00 0.00 0.00 69 1016.1
20190320010728 38 219 1.0 3.0 0.00 0.00 0.00 69 1016.1
20190320010226 38 219 0.0 2.0 0.00 0.00 0.00 70 1016.1
20190320005726 38 219 0.0 0.0 0.00 0.00 0.00 69 1016.1
20190320005225 38 219 0.0 0.0 0.00 0.00 0.00 69 1016.2
20190320004725 38 219 0.0 0.0 0.00 0.00 0.00 69 1016.3
20190320004227 38 219 0.0 0.0 0.00 0.00 0.00 70 1016.3
20190320003726 38 219 0.0 0.0 0.00 0.00 0.00 69 1016.4
20190320003226 38 219 0.0 0.0 0.00 0.00 0.00 69 1016.4
20190320002726 38 219 0.0 0.0 0.00 0.00 0.00 69 1016.5
20190320002226 38 219 0.0 0.0 0.00 0.00 0.00 68 1016.5
20190320001725 38 219 0.0 0.0 0.00 0.00 0.00 69 1016.5
20190320001226 38 219 0.0 0.0 0.00 0.00 0.00 68 1016.5
20190320000725 38 219 1.0 3.0 0.00 0.00 0.00 69 1016.6
20190320000256 38 219 1.0 3.0 0.00 0.00 0.00 68 1016.6
20190319235726 39 219 1.0 3.0 0.00 0.00 0.00 66 1016.6
20190319235225 39 219 1.0 3.0 0.00 0.00 0.00 67 1016.6
20190319234726 39 219 1.0 3.0 0.00 0.00 0.00 66 1016.6
20190319234226 39 219 1.0 3.0 0.00 0.00 0.00 65 1016.6
20190319233727 39 285 0.0 0.0 0.00 0.00 0.00 66 1016.6
20190319233224 39 285 0.0 0.0 0.00 0.00 0.00 65 1016.6
20190319232724 39 285 0.0 0.0 0.00 0.00 0.00 64 1016.6
20190319232223 40 285 0.0 2.0 0.00 0.00 0.00 65 1016.7
20190319231722 40 216 1.0 2.0 0.00 0.00 0.00 64 1016.6
20190319231220 40 216 2.0 4.0 0.00 0.00 0.00 65 1016.6
20190319230719 40 216 2.0 4.0 0.00 0.00 0.00 63 1016.5
20190319230219 40 205 2.0 5.0 0.00 0.00 0.00 63 1016.6
20190319225719 40 202 2.0 5.0 0.00 0.00 0.00 63 1016.5
20190319225219 40 227 2.0 4.0 0.00 0.00 0.00 62 1016.6
20190319224720 40 205 2.0 4.0 0.00 0.00 0.00 63 1016.6
20190319224219 40 204 2.0 4.0 0.00 0.00 0.00 61 1016.6
20190319223719 40 238 2.0 4.0 0.00 0.00 0.00 62 1016.7
20190319223220 40 342 2.0 3.0 0.00 0.00 0.00 63 1016.8
20190319222720 40 342 2.0 4.0 0.00 0.00 0.00 64 1016.8
20190319222220 40 212 2.0 5.0 0.00 0.00 0.00 63 1016.8
20190319221719 40 212 2.0 5.0 0.00 0.00 0.00 63 1016.7
20190319221220 40 199 2.0 5.0 0.00 0.00 0.00 62 1016.8
20190319220720 41 210 2.0 5.0 0.00 0.00 0.00 63 1016.9
20190319220219 41 200 2.0 5.0 0.00 0.00 0.00 63 1016.9
20190319215719 41 226 2.0 4.0 0.00 0.00 0.00 62 1016.9
20190319215219 41 226 3.0 5.0 0.00 0.00 0.00 61 1017.0
20190319214719 41 209 3.0 7.0 0.00 0.00 0.00 60 1017.1
20190319214221 42 235 3.0 7.0 0.00 0.00 0.00 60 1017.1
20190319213719 42 215 4.0 7.0 0.00 0.00 0.00 59 1017.1
20190319213219 42 236 4.0 7.0 0.00 0.00 0.00 59 1017.3
20190319212719 41 220 3.0 6.0 0.00 0.00 0.00 59 1017.1
20190319212220 41 210 3.0 6.0 0.00 0.00 0.00 59 1017.3
20190319211720 41 196 3.0 6.0 0.00 0.00 0.00 60 1017.3
20190319211221 41 186 2.0 5.0 0.00 0.00 0.00 61 1017.4
20190319210718 41 163 2.0 5.0 0.00 0.00 0.00 59 1017.4
20190319210215 42 191 3.0 6.0 0.00 0.00 0.00 59 1017.5
20190319205715 42 190 3.0 6.0 0.00 0.00 0.00 58 1017.5
20190319205216 42 197 3.0 6.0 0.00 0.00 0.00 57 1017.5
20190319204716 42 227 3.0 6.0 0.00 0.00 0.00 56 1017.5
20190319204216 42 197 3.0 7.0 0.00 0.00 0.00 57 1017.5
20190319203715 42 191 3.0 7.0 0.00 0.00 0.00 58 1017.6
20190319203215 42 211 3.0 8.0 0.00 0.00 0.00 56 1017.7
20190319202715 42 220 3.0 8.0 0.00 0.00 0.00 54 1017.8
20190319202215 43 355 3.0 6.0 0.00 0.00 0.00 55 1017.9
20190319201713 43 215 3.0 7.0 0.00 0.00 0.00 53 1017.9
20190319201214 43 211 3.0 7.0 0.00 0.00 0.00 54 1018.1
20190319200713 44 161 3.0 6.0 0.00 0.00 0.00 53 1018.2
20190319200211 44 186 3.0 5.0 0.00 0.00 0.00 54 1018.2
20190319195711 44 223 3.0 5.0 0.00 0.00 0.00 52 1018.3
20190319195211 44 210 3.0 5.0 0.00 0.00 0.00 53 1018.5
20190319194711 44 225 2.0 5.0 0.00 0.00 0.00 53 1018.6
20190319194211 44 215 3.0 5.0 0.00 0.00 0.00 55 1018.6
20190319193711 43 207 3.0 5.0 0.00 0.00 0.00 53 1018.6
20190319193210 43 233 2.0 5.0 0.00 0.00 0.00 56 1018.6
20190319192711 43 215 2.0 5.0 0.00 0.00 0.00 54 1018.8
20190319192212 43 221 2.0 5.0 0.00 0.00 0.00 55 1018.9
20190319191709 43 182 3.0 8.0 0.00 0.00 0.00 54 1019.0
20190319191209 43 213 3.0 8.0 0.00 0.00 0.00 53 1019.1
20190319190709 43 215 3.0 5.0 0.00 0.00 0.00 53 1019.2
20190319190209 43 259 3.0 5.0 0.00 0.00 0.00 53 1019.5
20190319185709 43 200 2.0 5.0 0.00 0.00 0.00 54 1019.6
20190319185208 43 207 2.0 5.0 0.00 0.00 0.00 55 1019.6
20190319184708 43 219 2.0 5.0 0.00 0.00 0.00 57 1019.7
20190319184207 43 188 2.0 4.0 0.00 0.00 0.00 56 1019.8
20190319183707 42 186 2.0 5.0 0.00 0.00 0.00 55 1019.8
20190319183208 42 184 3.0 5.0 0.00 0.00 0.00 55 1019.9
20190319182707 42 222 3.0 5.0 0.00 0.00 0.00 54 1020.1
20190319182207 43 217 3.0 5.0 0.00 0.00 0.00 53 1020.1
20190319181707 43 217 3.0 6.0 0.00 0.00 0.00 54 1020.1
20190319181206 43 240 3.0 6.0 0.00 0.00 0.00 53 1020.2
20190319180705 43 209 3.0 6.0 0.00 0.00 0.00 53 1020.1
20190319180205 43 205 3.0 6.0 0.00 0.00 0.00 53 1020.2
20190319175705 43 192 3.0 6.0 0.00 0.00 0.00 55 1020.2
20190319175205 43 225 3.0 6.0 0.00 0.00 0.00 55 1020.1
20190319174705 42 237 2.0 7.0 0.00 0.00 0.00 57 1020.2
20190319174205 42 209 2.0 7.0 0.00 0.00 0.00 55 1020.2
20190319173705 42 192 2.0 6.0 0.00 0.00 0.00 56 1020.2
20190319173205 42 202 2.0 4.0 0.00 0.00 0.00 56 1020.3
20190319172703 42 202 2.0 4.0 0.00 0.00 0.00 59 1020.4
20190319172203 42 194 2.0 4.0 0.00 0.00 0.00 57 1020.5
20190319171701 42 180 2.0 5.0 0.00 0.00 0.00 57 1020.5
20190319171201 42 215 2.0 5.0 0.00 0.00 0.00 56 1020.6
20190319170701 42 206 2.0 5.0 0.00 0.00 0.00 56 1020.6
20190319170202 41 18 2.0 4.0 0.00 0.00 0.00 58 1020.7
20190319165701 41 170 2.0 4.0 0.00 0.00 0.00 58 1020.7
20190319165201 41 213 2.0 5.0 0.00 0.00 0.00 59 1020.8
20190319164701 41 126 2.0 5.0 0.00 0.00 0.00 59 1020.8
20190319164200 40 199 2.0 4.0 0.00 0.00 0.00 58 1020.9
20190319163659 41 199 2.0 5.0 0.00 0.00 0.00 58 1020.9
20190319163159 41 192 2.0 5.0 0.00 0.00 0.00 60 1020.9
20190319162659 40 196 2.0 5.0 0.00 0.00 0.00 60 1020.9
20190319162159 40 282 1.0 3.0 0.00 0.00 0.00 62 1020.9
20190319161659 40 282 2.0 4.0 0.00 0.00 0.00 62 1021.1
20190319161159 40 212 2.0 4.0 0.00 0.00 0.00 62 1021.2
20190319160659 39 171 2.0 4.0 0.00 0.00 0.00 62 1021.2
20190319160159 39 203 2.0 3.0 0.00 0.00 0.00 64 1021.2
20190319155659 39 200 2.0 4.0 0.00 0.00 0.00 64 1021.3
20190319155156 39 239 2.0 4.0 0.00 0.00 0.00 64 1021.3